STARLINK-3746 (52268 NORAD) Tracking and Keplerian Element Data
This shows tracking and keplerian element data for the satellite.
Feedback or suggestion? Click here.
Element | Value |
Catalog | 52268 |
Name | STARLINK-3746 |
Epoch Orbit | 130 |
Epoch Day | 167.08334491 |
Epoch Year | 2022 |
RAAN | 106.8119 |
Inclination | 53.2173 |
Eccentricity | 0.0001847 |
Argument of Perigee | 39.4425 |
Mean Anonmoly | 69.2155 |
Mean Motion | 15.26547546 |
Decay Rate | -0.00727238 |
L1 | 1 52268U 22041H 22167.08334491 -.00727238 00000+0 -29440-1 0 9992 |
L2 | 2 52268 53.2173 106.8119 0001847 39.4425 69.2155 15.26547546 1306 |
Live tracking and technical data element details for STARLINK-3746 (NORAD 52268). STARLINK-3746 can be tracked NOW for your location showing map with azimuth and elevation plus other details from your city location.
Track the satellite on the map from your city or location and see movement details for azimuth, elevation, latitude, longitude, range, height, and movement on the map or in text.
IsCatalogInMostPopularTable: catalog: 52268, numindb: 2
Update: records affected: 1
GetName: 52268 STARLINK-3746
Hit Count: updated at: Sat, 25 Jun 2022 03:54:29 GMT